Theta_e
345 345 347 348 351 353 353 350 347 345 343 339 336 333 331 331 344 350 353 358 354 351 347 346 343 339 336 331 330 330 329 329 329 328 328 328 328 329 329 329 328 328 327
346 343 345 346 349 352 352 349 346 343 341 338 335 336 335 335 347 350 352 353 352 350 348 346 343 340 336 331 330 329 329 329 329 329 329 329 329 329 328 327 327 327 327
349 345 344 344 347 350 349 349 345 343 339 338 334 336 336 342 347 350 351 350 349 349 349 346 343 340 336 333 330 330 329 329 329 328 328 328 327 327 327 327 326 326 326
337 340 346 346 347 348 348 347 344 341 339 338 336 336 332 343 347 350 350 348 345 344 348 347 343 340 336 333 331 330 328 329 328 328 328 327 326 327 326 326 327 327 326
333 332 335 347 347 346 347 346 344 342 338 338 337 337 330 343 346 349 347 346 344 343 341 345 343 340 337 334 332 330 329 328 328 327 327 327 327 326 325 325 325 325 325
335 333 338 342 348 343 345 345 343 341 340 338 339 338 331 335 344 346 346 346 343 341 339 337 336 336 337 335 333 330 329 328 327 327 326 326 326 325 326 325 325 325 324
332 336 340 342 342 344 343 343 342 339 337 340 330 327 327 329 343 345 346 345 343 340 338 334 331 331 333 335 332 330 329 328 327 326 326 326 325 326 325 325 325 326 325
326 323 325 329 340 341 343 342 340 340 337 340 334 331 322 328 335 344 345 344 342 339 336 331 328 328 327 326 326 330 330 328 327 327 326 325 325 324 325 323 324 323 323
323 321 320 321 325 337 338 341 341 340 336 338 336 328 321 319 333 341 344 344 341 337 335 330 326 327 324 323 327 327 329 328 328 327 325 325 324 324 322 323 322 322 322
320 320 320 320 322 327 332 335 342 342 340 335 335 334 333 330 327 332 341 343 341 338 333 330 325 325 322 323 326 328 330 329 327 326 325 325 324 323 322 321 321 321 321
318 319 319 319 320 325 331 330 331 337 341 339 336 330 331 333 334 333 332 336 341 339 336 331 326 323 322 321 322 327 330 328 326 325 324 323 323 322 321 319 320 320 321
316 317 319 319 321 326 332 332 331 332 338 340 338 335 331 333 333 332 331 336 336 338 338 332 326 324 321 319 324 329 328 326 325 324 322 321 320 319 318 318 320 320 321
314 315 316 317 319 323 332 333 329 331 339 339 337 336 334 335 338 337 334 336 336 335 334 334 330 325 322 320 322 327 326 324 322 321 320 319 317 316 316 317 318 318 318
314 317 318 318 320 322 325 334 333 338 341 339 337 336 332 333 339 339 335 335 333 331 333 331 332 325 322 321 323 326 321 322 320 318 318 317 315 313 314 314 315 315 316
313 316 319 320 322 324 326 331 334 332 340 339 337 334 333 331 339 340 339 339 335 328 329 331 329 325 321 322 323 317 317 321 319 317 316 315 313 311 312 312 313 313 313
310 313 318 319 320 324 325 330 334 335 338 337 337 333 333 332 334 338 339 340 339 334 329 328 326 322 321 321 324 315 315 320 318 316 315 313 311 310 310 311 310 311 312
309 310 314 317 318 323 326 331 333 335 336 337 338 336 334 333 331 335 339 340 338 333 328 319 319 320 319 319 319 314 317 313 314 316 314 311 310 309 309 309 309 309 309
306 309 313 316 319 324 325 331 334 337 334 336 337 336 336 337 333 334 337 338 336 332 326 318 318 318 317 318 313 314 313 314 312 315 314 310 308 308 308 307 307 307 307
305 308 312 315 317 324 326 333 335 335 335 337 338 336 335 336 339 335 336 336 336 330 327 320 317 318 317 315 311 312 310 308 313 315 312 309 308 308 307 306 305 305 304
305 307 310 315 317 324 331 333 333 333 336 337 339 336 336 334 337 335 334 334 332 327 324 322 318 315 316 313 312 309 305 307 308 310 309 307 307 308 307 307 306 304 303
304 307 310 316 321 326 331 332 332 331 332 335 338 336 337 333 331 336 333 331 328 325 322 319 317 313 313 311 310 309 306 306 305 305 304 301 301 300 301 304 305 303 302
302 305 308 313 320 328 315 315 327 328 328 331 332 336 336 328 326 322 322 322 326 324 320 318 315 312 314 314 311 309 306 304 302 305 303 301 300 297 298 297 304 302 301
300 302 307 313 318 328 311 311 313 326 328 328 332 335 336 339 330 328 317 317 318 318 320 322 317 316 315 316 313 309 307 306 301 306 305 299 300 295 296 300 303 301 301
299 302 306 310 315 325 308 308 310 326 326 326 327 330 336 336 333 327 323 323 322 321 321 325 322 320 319 318 315 313 310 308 306 308 306 299 299 294 295 296 302 301 300
300 302 306 309 315 322 306 306 311 325 326 326 331 332 338 335 314 312 325 323 321 321 314 315 315 311 308 308 313 312 309 307 304 305 309 303 298 296 298 294 297 300 299
301 304 307 312 313 317 308 305 314 328 326 325 329 333 321 330 307 310 327 323 319 317 317 314 314 309 310 310 309 315 313 309 308 304 309 305 299 298 296 297 295 296 294
Wind_Speed
6 6 7 7 7 8 9 7 5 6 6 6 6 7 5 6 5 4 5 15 14 13 14 14 13 11 10 7 9 9 7 8 9 9 8 8 9 9 9 10 10 10 10
7 7 7 8 9 9 8 8 8 7 7 6 8 8 6 6 7 7 6 9 15 15 14 14 13 12 10 8 8 9 8 8 8 9 9 10 10 10 10 10 11 11 11
7 10 8 8 9 9 11 8 8 6 6 6 7 7 4 7 7 9 8 7 9 15 14 14 13 12 10 9 8 8 8 8 8 9 10 10 9 8 9 10 10 10 10
6 6 8 9 9 9 9 9 9 8 8 8 7 7 4 8 10 10 9 8 7 7 11 14 14 13 11 10 8 8 7 8 9 10 11 9 8 10 9 9 10 11 10
7 5 6 11 10 10 11 10 9 10 8 8 7 6 5 8 10 10 11 10 9 8 6 13 14 13 12 11 9 8 8 7 10 9 9 10 10 9 9 9 10 11 11
8 7 6 10 9 10 11 11 13 10 9 9 8 8 6 7 8 9 11 9 9 9 8 8 7 8 13 12 10 8 9 8 9 9 9 10 10 10 11 10 9 10 11
6 10 8 9 10 9 15 15 13 12 10 9 4 1 2 6 10 9 9 9 10 9 9 7 5 5 7 13 11 9 10 9 9 9 9 9 10 10 10 10 10 11 12
3 6 8 10 12 9 13 15 15 12 10 10 9 7 4 0 1 7 9 9 12 8 9 9 8 8 6 4 7 10 10 9 9 9 9 9 10 9 9 8 11 11 10
6 5 8 10 12 11 10 12 14 18 12 10 13 6 4 6 4 4 9 9 12 9 9 10 9 8 7 6 9 9 11 10 9 10 9 10 9 9 8 10 10 10 10
8 9 9 10 13 11 12 11 15 16 14 12 8 9 13 6 7 5 3 9 10 10 11 8 8 8 8 4 11 11 11 11 10 10 9 9 8 9 10 9 10 10 9
10 11 11 11 12 11 13 16 19 16 16 14 13 9 2 3 9 5 6 7 5 7 8 8 8 7 9 6 5 9 12 12 11 10 9 8 8 9 10 9 10 9 9
8 10 11 11 12 14 16 15 17 20 16 13 12 14 12 10 9 6 5 10 10 7 9 8 8 8 7 6 9 14 14 13 11 9 9 9 9 9 10 10 10 11 10
8 11 12 13 11 14 19 15 14 14 18 15 16 14 13 12 8 10 6 8 7 3 3 6 9 8 8 7 8 15 17 14 12 10 9 10 9 9 12 10 10 11 10
11 14 13 15 15 15 18 20 15 13 16 15 19 17 11 11 7 12 10 10 8 2 3 5 4 8 8 9 11 17 11 15 14 11 10 10 10 9 12 9 10 11 10
12 16 16 18 18 18 19 24 16 19 13 16 18 19 14 11 9 10 10 11 12 8 6 6 4 9 9 10 12 8 9 16 15 13 11 10 11 9 11 8 10 9 10
15 16 17 18 19 20 22 25 18 20 18 13 12 16 16 12 11 7 9 11 10 10 9 3 2 10 11 8 15 9 9 15 15 13 12 10 11 10 11 8 9 9 10
16 17 18 19 21 22 21 23 22 19 22 23 16 18 18 16 11 8 8 10 9 7 9 3 3 10 10 13 9 6 10 8 7 14 14 11 11 12 10 10 9 8 9
17 17 18 19 23 23 21 25 23 18 22 21 20 18 18 12 15 12 11 13 11 8 9 10 8 8 6 11 11 11 8 7 6 12 13 14 12 11 10 10 9 8 8
17 18 18 20 23 20 28 23 23 22 23 20 17 18 19 17 12 10 11 13 11 8 9 10 7 7 7 10 9 7 8 6 5 14 10 12 12 11 10 10 9 8 7
17 18 19 20 23 23 23 18 19 16 17 16 16 18 20 19 17 14 12 12 11 11 11 10 10 9 10 8 9 10 6 4 7 6 7 5 9 10 9 9 8 7 5
16 17 20 19 22 24 12 19 18 17 13 16 16 16 16 18 21 18 12 11 14 11 12 12 10 9 10 11 13 8 7 7 3 3 4 1 3 3 3 7 7 7 4
17 16 19 19 20 12 11 17 20 18 16 14 16 12 16 13 16 21 19 23 21 18 16 11 10 15 15 13 10 12 11 9 6 3 5 3 1 2 2 3 6 8 6
16 17 18 18 18 13 16 19 14 11 13 18 14 17 16 12 17 17 21 24 18 22 27 18 19 16 15 19 15 15 15 12 5 9 7 3 2 3 1 3 5 8 8
14 15 17 17 18 14 16 19 20 13 9 11 12 20 18 16 17 20 18 17 17 14 15 12 19 21 15 19 19 12 14 9 6 9 5 4 3 2 2 3 4 8 11
14 13 14 18 13 20 13 19 17 14 14 12 15 28 24 19 22 26 20 19 17 13 3 5 9 14 16 18 17 15 13 12 5 8 6 4 4 3 2 3 1 6 11
13 11 15 14 16 17 14 13 15 7 10 6 3 24 25 19 25 25 20 19 18 14 13 10 9 9 16 17 21 16 16 14 9 5 8 5 6 5 4 2 3 2 4
Wind_Direction
226 225 207 198 205 211 217 207 211 212 227 229 249 248 196 211 171 159 166 167 177 180 162 145 135 123 111 106 101 99 87 83 78 75 64 62 72 70 66 59 50 48 41
229 219 223 214 204 201 207 210 205 208 222 220 240 247 225 195 172 161 166 169 176 178 168 151 141 129 120 117 110 104 95 90 85 78 65 51 45 53 53 57 43 37 31
279 251 228 223 216 205 202 207 211 209 210 222 229 235 220 168 167 162 171 170 178 176 168 157 146 136 130 124 120 109 105 93 82 77 69 56 48 37 40 54 55 44 37
222 273 281 243 222 212 204 201 206 211 216 215 218 224 197 170 171 164 176 173 172 171 171 161 152 144 139 134 127 116 103 94 85 70 65 59 52 49 43 46 57 57 44
258 238 262 278 247 215 209 206 206 205 210 214 217 213 175 179 172 169 178 171 171 170 165 164 156 149 147 141 133 120 107 92 82 77 75 69 59 49 45 39 46 56 46
266 253 244 249 278 240 215 207 209 206 206 207 214 220 185 175 173 178 174 169 176 172 162 161 161 152 156 151 140 127 112 105 92 82 74 72 67 50 43 34 33 51 55
320 327 281 263 245 254 237 209 205 200 209 200 134 236 237 173 178 172 171 170 174 176 163 158 162 156 159 154 147 135 128 116 104 94 84 77 71 61 46 34 25 36 41
300 302 307 301 274 261 275 253 205 207 208 192 193 187 188 49 203 187 168 177 179 176 166 168 170 159 146 143 152 151 136 127 115 106 95 85 76 71 56 38 28 21 31
261 261 280 287 285 273 253 269 234 205 202 198 201 167 142 199 141 166 189 183 180 176 172 168 169 164 150 152 155 155 145 140 128 114 104 91 79 74 55 38 27 13 21
261 264 264 272 279 272 247 254 272 227 203 190 195 203 190 149 171 155 178 190 183 178 169 170 168 160 150 149 161 154 148 145 129 114 107 94 91 83 62 39 27 14 16
256 260 265 268 274 271 246 237 238 263 222 202 195 184 168 159 163 148 180 182 188 181 171 166 161 161 163 156 158 154 152 138 131 124 112 97 91 74 64 41 30 22 24
255 260 261 263 266 274 255 234 228 228 270 214 201 195 193 183 184 167 151 187 180 176 170 156 161 165 160 150 163 155 145 134 123 121 111 104 88 70 57 42 43 38 33
273 267 264 268 270 275 270 232 228 220 227 226 198 202 196 193 176 192 173 170 170 128 133 170 171 160 155 153 169 158 149 141 132 122 114 96 81 66 62 40 46 49 42
284 278 270 267 273 276 275 248 231 225 197 207 214 204 188 198 173 195 183 166 157 136 133 151 152 157 156 161 168 162 152 146 137 127 111 101 84 66 63 54 52 55 52
283 282 280 284 284 277 276 252 224 216 200 199 213 198 189 191 185 188 186 180 172 162 169 180 140 165 157 157 168 148 150 151 139 131 128 113 96 85 73 54 62 61 58
280 283 281 284 283 270 271 247 225 203 182 203 207 197 195 188 188 174 180 180 179 169 173 152 129 155 153 149 161 151 148 144 139 140 126 119 111 98 86 72 66 66 66
285 285 284 284 284 267 272 233 216 202 179 198 206 200 197 194 190 169 172 179 170 158 153 62 94 150 143 150 147 125 143 127 145 142 138 127 114 98 94 87 76 69 65
282 281 281 279 279 265 281 228 209 205 193 197 203 201 193 190 186 173 177 176 177 154 139 146 136 156 143 151 144 137 145 137 141 152 137 127 120 110 100 91 85 77 67
285 282 279 277 289 268 262 209 202 193 189 194 198 206 199 184 170 171 177 177 175 149 149 147 140 151 137 149 131 126 138 120 137 146 136 136 121 115 113 98 88 80 68
285 285 285 276 277 272 220 202 197 186 190 189 203 208 200 196 175 160 171 172 149 143 140 140 134 146 146 145 141 142 128 123 141 142 140 151 122 118 114 102 95 89 85
287 287 290 289 291 286 215 196 187 186 176 192 203 208 215 199 179 166 159 160 143 145 144 141 144 150 151 162 169 157 143 136 127 132 129 195 123 96 92 88 83 83 81
290 292 290 291 280 245 205 170 183 189 193 186 208 205 208 195 170 152 151 149 157 157 153 150 168 169 171 168 155 155 143 153 165 170 147 165 145 101 71 83 90 83 72
292 289 289 294 294 259 193 179 174 149 181 193 207 208 205 199 166 155 153 151 165 171 163 161 164 176 170 178 157 158 165 161 158 149 138 152 146 117 131 80 65 72 71
287 288 290 295 298 294 193 194 185 196 191 198 214 214 195 176 158 149 154 155 165 171 171 170 173 176 181 168 170 158 151 124 102 148 144 139 147 132 122 72 56 57 73
287 285 285 288 289 297 200 189 180 203 203 229 250 196 189 176 153 151 154 157 160 170 175 202 185 160 149 144 152 135 153 142 135 169 193 123 160 120 132 121 84 66 63
280 280 280 282 281 290 207 191 176 199 211 180 264 161 151 158 153 150 153 156 157 165 150 132 129 124 145 153 155 161 157 157 141 133 206 123 141 151 137 117 133 91 59